Barcelona, Spain

8:03 PM CEST en Septiembre 21, 2018 (GMT +0200)
El Prat

Tiempo Historia de LEBL - Julio, 2018

Change the Weather History Date:

Jueves, Julio 12, 2018

  Actual Average Record
Temperature  
Temperatura media 78 ° F -  
Temperatura máxima 84 ° F 79 ° F 91 ° F (2003)
Temperatura mínima 72 ° F 67 ° F 59 ° F (2000)
Cooling Degree Days 13    
Growing Degree Days 28 (Base 50)    
Moisture  
Punto de rocío 64 ° F    
Average Humidity 60    
Maximum Humidity 78    
Minimum Humidity 33    
Precipitación  
Precipitación 0.00 pul 0.05 pul - ()
Presión al nivel del mar  
Presión al nivel del mar 29.97 pul    
Viento  
Velocidad del viento 9 mph ()    
Velocidad máxima del viento 18 mph    
Max Gust Speed -    
Visibilidad 11.5 Millas    
Eventos Lluvia    
Averages and records for this station are not official NWS values.
T = Trace of Precipitation, MM = Missing Value Source: Averaged Metar Reports

Daily Weather History Graph

Daily Weather History Graph

Search for Another Location

Airport or City:

Astronomía

Jul. 12, 2018 Salida Puesta
Hora real 6:29 AM CEST 9:25 PM CEST
Crepúsculo civil 5:56 AM CEST 9:58 PM CEST
Crepúsculo náutico 5:14 AM CEST 10:39 PM CEST
Crepúsculo astronómico 4:25 AM CEST 11:28 PM CEST
Luna 5:41 AM CEST (7/12) 8:52 PM CEST (7/12)
Horas de luz 16h 01m
Horas de luz
14h 55m
Creciente menguante, 1% of the Moon is Illuminated
Jul 12
Creciente menguante
Jul 13
Nueva
Jul 19
Cuarto creciente
Jul 27
Luna llena
Ago 4
Cuarto menguante

Hourly Weather History & Observations

Hora (CEST) Temp. Índice de calor Punto de rocío Humedad Presión Visibilidad Wind Dir Velocidad del viento Velocidad de ráfagas Precip Eventos Condiciones
12:00 AM 80 ° F - 64 ° F 48% 29.97 pul 19 mi NE 11.5 mph - -  
12:00 AM 78.8 ° F - 64.4 ° F 61% 29.95 pul 6.2 mi NE 6.9 mph - N/A   Parcialmente nublado
12:30 AM 78.8 ° F - 66.2 ° F 65% 29.98 pul 6.2 mi Este 4.6 mph - N/A   Llovizna débil
1:00 AM 78 ° F - 66 ° F 57% 29.97 pul 19 mi Este 10.4 mph - - Lluvia Lluvia débil
1:00 AM 77.0 ° F - 66.2 ° F 69% 29.95 pul 6.2 mi ENE 8.1 mph - N/A   Llovizna débil
1:30 AM 77.0 ° F - 66.2 ° F 69% 29.92 pul 6.2 mi NNE 10.4 mph - N/A   Llovizna débil
2:00 AM 78 ° F - 63 ° F 50% 29.95 pul 19 mi Este 2.3 mph - - Lluvia Llovizna débil
2:00 AM 77.0 ° F - 64.4 ° F 65% 29.95 pul 6.2 mi Variable 2.3 mph - N/A   Parcialmente nublado
2:30 AM 77.0 ° F - 66.2 ° F 69% 29.95 pul 6.2 mi Este 4.6 mph - N/A   Parcialmente nublado
3:00 AM 75 ° F - 66 ° F 67% 29.96 pul 17 mi Oeste 4.6 mph - -  
3:00 AM 73.4 ° F - 66.2 ° F 78% 29.95 pul 6.2 mi Este 1.2 mph - N/A   Parcialmente nublado
3:30 AM 73.4 ° F - 66.2 ° F 78% 29.95 pul 6.2 mi ONO 5.8 mph - N/A   Parcialmente nublado
4:00 AM 75.2 ° F - 64.4 ° F 69% 29.92 pul - Norte 8.1 mph - N/A   Despejado
4:30 AM 73.4 ° F - 64.4 ° F 73% 29.92 pul - NNO 5.8 mph - N/A   Despejado
5:00 AM 74 ° F - 63 ° F 61% 29.94 pul 16 mi Norte 6.9 mph - -   Nubes dispersas
5:00 AM 73.4 ° F - 64.4 ° F 73% 29.92 pul - NO 4.6 mph - N/A   Despejado
5:30 AM 73.4 ° F - 62.6 ° F 69% 29.92 pul - NNO 9.2 mph - N/A   Despejado
6:00 AM 74 ° F - 60 ° F 53% 29.94 pul 19 mi Norte 11.5 mph - -  
6:00 AM 71.6 ° F - 60.8 ° F 69% 29.95 pul - NNO 12.7 mph - N/A   Despejado
6:30 AM 71.6 ° F - 60.8 ° F 69% 29.95 pul - NNO 11.5 mph - N/A   Despejado
7:00 AM 73 ° F - 60 ° F 54% 29.95 pul 19 mi Norte 9.2 mph - -  
7:00 AM 71.6 ° F - 60.8 ° F 69% 29.95 pul - NNO 8.1 mph - N/A   Despejado
7:30 AM 73.4 ° F - 60.8 ° F 65% 29.95 pul 6.2 mi NNO 6.9 mph - N/A   Parcialmente nublado
8:00 AM 76 ° F - 60 ° F 49% 29.95 pul 12 mi Norte 5.8 mph - -   Nubes dispersas
8:00 AM 75.2 ° F - 60.8 ° F 61% 29.95 pul 6.2 mi NNE 3.5 mph - N/A   Parcialmente nublado
8:30 AM 77.0 ° F - 60.8 ° F 57% 29.95 pul 6.2 mi NNO 6.9 mph - N/A   Parcialmente nublado
9:00 AM 79 ° F - 60 ° F 43% 29.95 pul 19 mi Norte 9.2 mph - -  
9:00 AM 77.0 ° F - 60.8 ° F 57% 29.95 pul - NNO 8.1 mph - N/A   Despejado
9:30 AM 80.6 ° F 81.8 ° F 62.6 ° F 54% 29.95 pul - Este 8.1 mph - N/A   Despejado
10:00 AM 83 ° F - 59 ° F 33% 29.96 pul 19 mi ENE 10.4 mph - -  
10:00 AM 82.4 ° F 82.9 ° F 60.8 ° F 48% 29.95 pul - NE 11.5 mph - N/A   Despejado
10:30 AM 84.2 ° F 83.8 ° F 59.0 ° F 42% 29.95 pul - ENE 10.4 mph - N/A   Despejado
11:00 AM 84 ° F - 60 ° F 34% 29.96 pul 19 mi Este 13.8 mph - -   Despejado
11:00 AM 82.4 ° F 83.4 ° F 62.6 ° F 51% 29.95 pul - Este 11.5 mph - N/A   Despejado
11:30 AM 84.2 ° F 85.6 ° F 64.4 ° F 51% 29.95 pul 6.2 mi Este 12.7 mph - N/A   Parcialmente nublado
12:00 PM 82.4 ° F 83.9 ° F 64.4 ° F 54% 29.98 pul 6.2 mi Este 12.7 mph - N/A   Parcialmente nublado
12:30 PM 82.4 ° F 84.6 ° F 66.2 ° F 58% 29.98 pul 6.2 mi Este 13.8 mph - N/A   Parcialmente nublado
1:00 PM 80.6 ° F 83.2 ° F 68.0 ° F 65% 29.98 pul 6.2 mi Este 15.0 mph - N/A   Parcialmente nublado
1:30 PM 80.6 ° F 83.2 ° F 68.0 ° F 65% 29.98 pul 6.2 mi Este 16.1 mph - N/A   Parcialmente nublado
2:00 PM 82 ° F - 65 ° F 46% 29.99 pul 19 mi ESE 17.3 mph - -   Nubes dispersas
2:00 PM 80.6 ° F 82.7 ° F 66.2 ° F 61% 29.98 pul 6.2 mi ESE 16.1 mph - N/A   Parcialmente nublado
2:30 PM 80.6 ° F 83.2 ° F 68.0 ° F 65% 29.98 pul 6.2 mi ESE 18.4 mph - N/A   Parcialmente nublado
3:00 PM 82 ° F - 66 ° F 49% 29.99 pul 17 mi ESE 18.4 mph - -  
3:00 PM 80.6 ° F 82.7 ° F 66.2 ° F 61% 29.98 pul 6.2 mi Este 16.1 mph - N/A   Parcialmente nublado
3:30 PM 80.6 ° F 82.7 ° F 66.2 ° F 61% 29.98 pul 6.2 mi Este 16.1 mph - N/A   Parcialmente nublado
4:00 PM 82.4 ° F 85.4 ° F 68.0 ° F 62% 29.98 pul - ESE 16.1 mph - N/A   Despejado
4:30 PM 80.6 ° F 82.7 ° F 66.2 ° F 61% 29.98 pul - ESE 15.0 mph - N/A   Despejado
5:00 PM 83 ° F - 63 ° F 40% 29.99 pul 17 mi ESE 16.1 mph - -  
5:00 PM 82.4 ° F 83.9 ° F 64.4 ° F 54% 29.98 pul - Este 15.0 mph - N/A   Despejado
5:30 PM 82.4 ° F 83.9 ° F 64.4 ° F 54% 29.98 pul - Este 12.7 mph - N/A   Despejado
6:00 PM 80.6 ° F 82.3 ° F 64.4 ° F 58% 29.98 pul - ENE 15.0 mph - N/A   Despejado
6:30 PM 80.6 ° F 82.3 ° F 64.4 ° F 58% 29.98 pul - ENE 16.1 mph - N/A   Despejado
7:00 PM 81 ° F - 64 ° F 47% 29.98 pul 15 mi Este 18.4 mph - -  
7:00 PM 80.6 ° F 82.3 ° F 64.4 ° F 58% 29.98 pul - ENE 17.3 mph - N/A   Despejado
7:30 PM 78.8 ° F - 64.4 ° F 61% 29.98 pul - ENE 16.1 mph - N/A   Despejado
8:00 PM 79 ° F - 64 ° F 51% 29.99 pul 19 mi ENE 16.1 mph - -   Nubes dispersas
8:00 PM 78.8 ° F - 64.4 ° F 61% 29.98 pul - ENE 15.0 mph - N/A   Despejado
8:30 PM 77.0 ° F - 66.2 ° F 69% 29.98 pul - ENE 11.5 mph - N/A   Despejado
9:00 PM 77.0 ° F - 66.2 ° F 69% 29.98 pul - ENE 12.7 mph - N/A   Despejado
9:30 PM 77.0 ° F - 66.2 ° F 69% 30.01 pul - ENE 11.5 mph - N/A   Despejado
10:00 PM 77 ° F - 66 ° F 61% 30.01 pul 19 mi ENE 12.7 mph - -  
10:00 PM 77.0 ° F - 66.2 ° F 69% 30.01 pul - ENE 11.5 mph - N/A   Despejado
10:30 PM 77.0 ° F - 66.2 ° F 69% 30.01 pul - ENE 8.1 mph - N/A   Despejado
11:00 PM 75.2 ° F - 68.0 ° F 78% 30.01 pul - NE 8.1 mph - N/A   Despejado
11:30 PM 77.0 ° F - 66.2 ° F 69% 30.04 pul - NE 8.1 mph - N/A   Despejado